Weather reports worldwide

Advertisment
Palma De Mallorca/Son San Ju, Spain (8306): temperature & dewpoint: 21.02.2020 15:00:00 - 27.02.2020 15:00:00 (CET)Palma De Mallorca/Son San Ju, Spain (8306): wind speed: 21.02.2020 15:00:00 - 27.02.2020 15:00:00 (CET)Palma De Mallorca/Son San Ju, Spain (8306): wind direction: 21.02.2020 15:00:00 - 27.02.2020 15:00:00 (CET)Palma De Mallorca/Son San Ju, Spain (8306): reduced air pressure: 21.02.2020 15:00:00 - 27.02.2020 15:00:00 (CET)Palma De Mallorca/Son San Ju, Spain (8306): visibility: 21.02.2020 15:00:00 - 27.02.2020 15:00:00 (CET)
Date & Time tt [°C] td [°C] ff [km/h] ff [kn] dd ppp [hPa] vv [km]
27.02.2020 15:00:00 17,1 7,7 29 16 WSW 1017,1 10
27.02.2020 14:00:00 17,4 8,6 29 16 SW 1017,8 10
27.02.2020 13:00:00 17,3 7,4 24 13 WSW 1019,1 10
27.02.2020 12:00:00 17,5 6,1 24 13 WSW 1019,7 10
27.02.2020 11:00:00 16,2 7,1 22 12 WSW 1019,7 10
27.02.2020 10:00:00 14,8 7,5 9 5 WSW 1019,8 30
27.02.2020 09:00:00 8,8 5,7 9 5 ESE 1019,6 10
27.02.2020 08:00:00 5,8 3,5 8 4 SSE 1019,2 10
27.02.2020 07:00:00 6,7 3,7 5 3 ENE 1019,1 10
27.02.2020 06:00:00 8,9 4,2 8 4 SSE 1019,4 10
27.02.2020 05:00:00 7,1 3,5 4 2 E 1019,2 10
27.02.2020 04:00:00 7,5 3,5 0 0 N 1019,3 10
27.02.2020 03:00:00 11,8 3,8 5 3 WNW 1019,9 10
27.02.2020 02:00:00 12,9 3,5 8 4 W 1020,1 10
27.02.2020 01:00:00 12,3 2,4 8 4 WSW 1020,1 25
27.02.2020 00:00:00 13,2 3,0 11 6 SSW 1020,0 10
26.02.2020 23:00:00 13,9 3,0 13 7 W 1019,8 10
26.02.2020 22:00:00 13,2 2,4 8 4 SSE 1019,7 25
26.02.2020 21:00:00 12,0 3,0 4 2 E 1019,1 10
26.02.2020 20:00:00 13,6 2,6 4 2 S 1018,6 10
26.02.2020 19:00:00 14,9 3,2 5 3 NW 1017,6 10
26.02.2020 18:00:00 16,2 2,2 11 6 NW 1017,1 10
26.02.2020 17:00:00 17,1 2,1 13 7 WNW 1016,8 10
26.02.2020 16:00:00 17,3 2,0 28 15 NW 1015,5 10
26.02.2020 15:00:00 17,5 2,9 35 19 NW 1015,9 10
26.02.2020 14:00:00 17,9 3,4 29 16 NW 1016,3 10
26.02.2020 13:00:00 17,2 3,2 35 19 NW 1015,7 30
26.02.2020 12:00:00 16,3 1,1 52 28 NW 1016,8 10
26.02.2020 11:00:00 16,5 2,8 42 23 NNW 1016,2 10
26.02.2020 10:00:00 15,7 4,3 28 15 NW 1016,4 28
26.02.2020 09:00:00 15,2 5,3 11 6 NW 1016,0 10
26.02.2020 08:00:00 14,1 7,8 11 6 SW 1015,8 10
26.02.2020 07:00:00 13,9 7,9 13 7 WNW 1015,4 25
26.02.2020 06:00:00 13,6 8,4 2 1 N 1015,0 10
26.02.2020 05:00:00 9,6 7,2 4 2 W 1014,8 10
26.02.2020 04:00:00 7,9 7,0 4 2 ESE 1014,9 20
26.02.2020 03:00:00 7,1 6,0 5 3 E 1015,5 10
26.02.2020 02:00:00 7,4 6,2 0 0 N 1015,6 10
26.02.2020 01:00:00 8,3 6,9 0 0 N 1015,7 10
26.02.2020 00:00:00 8,6 6,5 8 4 S 1015,8 10
25.02.2020 23:00:00 9,2 4,8 11 6 E 1015,9 10
25.02.2020 22:00:00 15,5 6,1 11 6 WSW 1015,8 25
25.02.2020 21:00:00 13,5 3,8 5 3 SW 1015,5 10
25.02.2020 20:00:00 15,0 3,5 5 3 SE 1015,1 10
25.02.2020 19:00:00 16,8 4,0 4 2 SE 1014,9 20
25.02.2020 18:00:00 18,4 2,8 8 4 N 1014,4 10
25.02.2020 17:00:00 20,5 1,7 16 9 NNW 1014,2 10
25.02.2020 16:00:00 21,0 1,7 22 12 NW 1014,2 22
25.02.2020 15:00:00 20,7 2,0 16 9 WNW 1014,2 10
25.02.2020 14:00:00 18,4 12,1 22 12 SW 1015,4 10
25.02.2020 13:00:00 17,3 12,4 22 12 SSW 1016,2 18
25.02.2020 12:00:00 17,6 13,5 16 9 SW 1017,0 10
25.02.2020 11:00:00 16,6 12,7 11 6 SW 1017,2 10
25.02.2020 10:00:00 13,6 9,9 8 4 SE 1017,2 15
25.02.2020 09:00:00 9,4 6,8 0 0 N 1017,8 10
25.02.2020 08:00:00 8,1 7,3 0 0 N 1017,4 10
25.02.2020 07:00:00 7,0 6,6 2 1 N 1017,7 15
25.02.2020 06:00:00 5,5 4,9 4 2 NNE 1018,1 10
25.02.2020 05:00:00 4,4 3,5 0 0 N 1018,3 10
25.02.2020 04:00:00 5,1 3,8 2 1 N 1018,8 11
25.02.2020 03:00:00 5,8 5,4 5 3 NW 1019,8 9
25.02.2020 02:00:00 5,4 5,1 2 1 NE 1020,6 7
25.02.2020 01:00:00 4,6 4,2 4 2 NNE 1021,4 1,0
25.02.2020 00:00:00 5,4 4,8 4 2 E 1021,9 10
24.02.2020 23:00:00 6,8 6,2 4 2 N 1022,3 10
24.02.2020 22:00:00 8,0 7,4 4 2 NE 1022,6 12
24.02.2020 21:00:00 8,7 7,4 2 1 - 1022,8 10
24.02.2020 20:00:00 12,3 9,8 9 5 WSW 1023,2 10
24.02.2020 19:00:00 13,5 10,7 9 5 WSW 1023,4 28
24.02.2020 18:00:00 15,6 11,8 16 9 SSW 1023,3 10
24.02.2020 17:00:00 16,5 11,2 16 9 SSW 1023,4 10
24.02.2020 16:00:00 17,1 10,2 22 12 SSW 1024,1 30
24.02.2020 15:00:00 17,6 11,4 21 11 SSW 1025,0 10
24.02.2020 14:00:00 17,7 11,9 24 13 SSW 1025,9 10
24.02.2020 13:00:00 17,6 12,3 21 11 SSW 1026,9 30
24.02.2020 12:00:00 16,7 11,2 13 7 SSW 1027,7 10
24.02.2020 11:00:00 15,9 11,6 11 6 SW 1028,2 10
24.02.2020 10:00:00 11,6 10,7 0 0 N 1028,5 10
24.02.2020 09:00:00 6,7 6,4 0 0 N 1028,5 0,9
24.02.2020 08:00:00 5,1 5,0 4 2 NNE 1028,6 0,2
24.02.2020 07:00:00 5,2 4,9 2 1 N 1028,6 0,3
24.02.2020 06:00:00 5,4 5,1 4 2 NNW 1028,9 0,3
24.02.2020 05:00:00 5,6 5,3 2 1 NE 1029,0 0,1
24.02.2020 04:00:00 5,6 5,3 0 0 N 1029,5 0,1
24.02.2020 03:00:00 5,7 5,4 2 1 N 1030,2 0,3
24.02.2020 02:00:00 5,9 5,6 2 1 - 1030,7 1,0
24.02.2020 01:00:00 6,3 5,7 4 2 E 1031,1 1,5
24.02.2020 00:00:00 7,5 7,1 4 2 - 1031,0 10
23.02.2020 23:00:00 7,8 7,2 11 6 S 1031,2 10
23.02.2020 22:00:00 8,9 8,0 8 4 SSW 1031,3 10
23.02.2020 21:00:00 12,3 10,1 13 7 WSW 1031,2 10
23.02.2020 20:00:00 13,9 10,9 15 8 SSW 1031,3 10
23.02.2020 19:00:00 14,3 11,3 5 3 S 1031,5 10
23.02.2020 18:00:00 15,3 11,3 16 9 SSW 1031,1 10
23.02.2020 17:00:00 16,7 12,0 16 9 SSW 1031,4 10
23.02.2020 16:00:00 18,4 10,9 16 9 SSW 1031,5 30
23.02.2020 15:00:00 18,3 9,4 15 8 SW 1031,9 10
23.02.2020 14:00:00 18,1 8,6 13 7 SW 1032,7 10
23.02.2020 13:00:00 17,5 11,5 15 8 WSW 1033,5 30
23.02.2020 12:00:00 17,8 10,3 4 2 SW 1034,1 10
23.02.2020 11:00:00 15,7 11,1 4 2 E 1034,5 10
23.02.2020 10:00:00 12,3 10,9 5 3 N 1034,4 10
23.02.2020 09:00:00 6,7 6,4 0 0 N 1034,2 8
23.02.2020 08:00:00 2,8 2,5 4 2 - 1033,7 4,5
23.02.2020 07:00:00 3,3 3,0 4 2 NE 1033,4 0,7
23.02.2020 06:00:00 3,6 3,3 4 2 E 1033,4 0,9
23.02.2020 05:00:00 4,2 3,9 4 2 - 1033,2 7
23.02.2020 04:00:00 4,5 4,1 0 0 N 1033,6 0,9
23.02.2020 03:00:00 5,4 5,0 0 0 N 1033,8 8
23.02.2020 02:00:00 5,8 5,2 4 2 NE 1034,5 10
23.02.2020 01:00:00 6,5 6,1 5 3 N 1034,9 15
23.02.2020 00:00:00 6,9 6,5 4 2 NNE 1034,9 10
22.02.2020 23:00:00 7,5 6,8 4 2 E 1034,6 10
22.02.2020 22:00:00 8,8 8,0 5 3 N 1033,8 15
22.02.2020 21:00:00 9,6 8,4 13 7 ENE 1033,8 10
22.02.2020 20:00:00 10,1 8,9 13 7 ENE 1033,4 10
22.02.2020 19:00:00 13,7 11,0 9 5 SSW 1033,3 25
22.02.2020 18:00:00 15,2 10,5 11 6 SW 1032,7 10
22.02.2020 17:00:00 16,1 11,0 15 8 SW 1032,0 10
22.02.2020 16:00:00 16,5 11,1 21 11 SW 1032,0 30
22.02.2020 15:00:00 16,9 10,9 21 11 SW 1032,4 10
22.02.2020 14:00:00 17,0 10,7 13 7 SSW 1032,9 10
22.02.2020 13:00:00 17,0 10,9 13 7 SSW 1033,1 30
22.02.2020 12:00:00 15,9 10,6 11 6 WSW 1033,3 10
22.02.2020 11:00:00 15,5 9,3 8 4 SW 1033,0 10
22.02.2020 10:00:00 12,5 8,8 4 2 ESE 1032,8 30
22.02.2020 09:00:00 7,2 6,0 0 0 N 1032,6 10
22.02.2020 08:00:00 2,7 2,1 5 3 NNW 1031,7 9
22.02.2020 07:00:00 2,7 2,1 4 2 NE 1031,0 15
22.02.2020 06:00:00 2,9 2,3 4 2 ENE 1030,7 10
22.02.2020 05:00:00 2,7 2,1 4 2 NNW 1030,4 10
22.02.2020 04:00:00 3,5 2,8 5 3 E 1030,3 15
22.02.2020 03:00:00 3,5 2,8 5 3 ENE 1030,5 10
22.02.2020 02:00:00 4,3 3,5 5 3 E 1030,4 10
22.02.2020 01:00:00 4,8 3,9 4 2 ENE 1030,6 10
22.02.2020 00:00:00 5,9 4,9 4 2 E 1030,7 10
21.02.2020 23:00:00 7,0 5,9 0 0 N 1030,9 10
21.02.2020 22:00:00 8,3 6,4 4 2 - 1030,5 10
21.02.2020 21:00:00 9,4 7,8 4 2 - 1030,2 10
21.02.2020 20:00:00 11,3 8,5 2 1 E 1030,1 10
21.02.2020 19:00:00 13,6 9,2 11 6 SW 1029,7 18
21.02.2020 18:00:00 15,7 9,6 11 6 SW 1029,4 10
21.02.2020 17:00:00 17,4 7,0 11 6 ESE 1029,1 10
21.02.2020 16:00:00 17,9 7,6 16 9 E 1029,1 30
21.02.2020 15:00:00 18,3 6,5 22 12 E 1029,2 10

tt = temperature
td = dewpoint
ff = wind speed
dd = wind direction
ppp = reduced air pressure
vv = visibility

Next stations